Elkins, WV

6:53 PM EST on November 20, 2019 (GMT -0500)
Elkins-Randolph County

Weather History for KEKN - September, 2019

Change the Weather History Date:

Friday, September 27, 2019

  Actual Average Record
Temperature  
Mean Temperature 66 °F 58 °F  
Max Temperature 84 °F 70 °F 85 °F (1946)
Min Temperature 48 °F 46 °F 29 °F (1918)
Degree Days  
Heating Degree Days 0 8  
Month to date heating degree days 12 105  
Since 1 July heating degree days 19 135  
Cooling Degree Days 1 1  
Month to date cooling degree days 119 45  
Year to date cooling degree days 790 471  
Growing Degree Days 16 (Base 50)    
Moisture  
Dew Point 49 °F    
Average Humidity 79    
Maximum Humidity 93    
Minimum Humidity 33    
Precipitation  
Precipitation 0.00 in 0.11 in 1.43 in (2018)
Month to date precipitation 0.48 3.29  
Year to date precipitation 38.19 36.10  
Snow  
Snow 0.00 in 0.00 in 0.00 in (2016)
Month to date snowfall 0.0 0.0  
Since 1 September snowfall 0.0 0.0  
Snow Depth 0.00 in    
Sea Level Pressure  
Sea Level Pressure 30.09 in    
Wind  
Wind Speed 1 mph ()    
Max Wind Speed 13 mph    
Max Gust Speed 16 mph    
Visibility 4.1 miles    
Events Fog    
T = Trace of Precipitation, MM = Missing Value Source: Averaged Metar Reports

Daily Weather History Graph

Daily Weather History Graph

Search for Another Location

Airport or City:

Astronomy

Sep. 27, 2019 Rise Set
Actual Time 7:11 AM EDT 7:08 PM EDT
Civil Twilight 6:44 AM EDT 7:35 PM EDT
Nautical Twilight 6:13 AM EDT 8:06 PM EDT
Astronomical Twilight 5:42 AM EDT 8:37 PM EDT
Moon 5:32 AM EDT (9/27) 6:57 PM EDT (9/27)
Length of Visible Light 12h 50m
Length of Day
11h 57m
Waning Crescent, 2% of the Moon is Illuminated
Sep 27
Waning Crescent
Sep 28
New
Oct 5
First Quarter
Oct 13
Full
Oct 21
Last Quarter

Hourly Weather History & Observations

Time (EDT) Temp. Heat Index Dew Point Humidity Pressure Visibility Wind Dir Wind Speed Gust Speed Precip Events Conditions
12:11 AM 52.0 °F - 48.9 °F 89% 30.06 in 6.0 mi Calm Calm - N/A   Partly Cloudy
12:16 AM 51.1 °F - 48.9 °F 92% 30.06 in 1.5 mi Calm Calm - N/A   Scattered Clouds
12:19 AM 51.1 °F - 48.9 °F 92% 30.06 in 0.8 mi Calm Calm - N/A   Mist
12:26 AM 51.1 °F - 48.0 °F 89% 30.06 in 1.2 mi Calm Calm - N/A   Partly Cloudy
12:28 AM 51.1 °F - 48.9 °F 92% 30.06 in 3.0 mi Calm Calm - N/A   Partly Cloudy
12:39 AM 51.1 °F - 48.0 °F 89% 30.06 in 1.8 mi Calm Calm - N/A   Partly Cloudy
12:46 AM 51.8 °F - 48.2 °F 88% 30.06 in 0.8 mi Calm Calm - N/A   Mist
12:51 AM 51.1 °F - 48.0 °F 89% 30.06 in 0.2 mi Calm Calm - N/A Fog Fog
1:11 AM 50.0 °F - 48.0 °F 93% 30.07 in 0.8 mi Calm Calm - N/A   Mist
1:26 AM 51.1 °F - 48.0 °F 89% 30.07 in 0.2 mi Calm Calm - N/A Fog Fog
1:41 AM 50.0 °F - 46.9 °F 89% 30.07 in 0.5 mi Calm Calm - N/A Fog Fog
1:51 AM 50.0 °F - 46.9 °F 89% 30.07 in 0.5 mi Calm Calm - N/A Fog Fog
2:02 AM 50.0 °F - 46.9 °F 89% 30.07 in 1.0 mi Calm Calm - N/A   Mist
2:09 AM 50.0 °F - 46.4 °F 87% 30.07 in 0.5 mi Calm Calm - N/A Fog Fog
2:19 AM 50.0 °F - 48.0 °F 93% 30.08 in 0.2 mi Calm Calm - N/A Fog Fog
2:51 AM 51.1 °F - 48.9 °F 92% 30.07 in 0.2 mi Calm Calm - N/A Fog Fog
3:51 AM 51.1 °F - 48.0 °F 89% 30.07 in 0.2 mi Calm Calm - N/A Fog Fog
4:18 AM 50.0 °F - 46.9 °F 89% 30.08 in 0.5 mi Calm Calm - N/A Fog Fog
4:35 AM 50.0 °F - 46.9 °F 89% 30.09 in 0.2 mi Calm Calm - N/A Fog Fog
4:51 AM 50.0 °F - 46.9 °F 89% 30.09 in 0.2 mi Calm Calm - N/A Fog Fog
4:58 AM 50.0 °F - 46.4 °F 87% 30.09 in 0.5 mi Calm Calm - N/A Fog Fog
5:08 AM 48.9 °F - 46.0 °F 90% 30.10 in 2.0 mi Calm Calm - N/A   Mostly Cloudy
5:12 AM 48.9 °F - 46.0 °F 90% 30.10 in 3.0 mi Calm Calm - N/A   Scattered Clouds
5:28 AM 48.0 °F - 44.1 °F 86% 30.10 in 2.0 mi Calm Calm - N/A   Partly Cloudy
5:33 AM 48.0 °F - 45.0 °F 89% 30.10 in 1.0 mi Calm Calm - N/A   Mist
5:40 AM 48.0 °F - 45.0 °F 89% 30.10 in 0.5 mi Calm Calm - N/A Fog Fog
5:51 AM 48.0 °F - 45.0 °F 89% 30.10 in 0.5 mi Calm Calm - N/A Fog Fog
5:58 AM 48.0 °F - 45.0 °F 89% 30.10 in 0.2 mi Calm Calm - N/A Fog Fog
6:51 AM 48.0 °F - 46.0 °F 93% 30.12 in 0.2 mi Calm Calm - N/A Fog Fog
7:02 AM 48.9 °F - 46.0 °F 90% 30.12 in 0.5 mi Calm Calm - N/A Fog Fog
7:21 AM 48.9 °F - 46.0 °F 90% 30.12 in 0.2 mi Calm Calm - N/A Fog Fog
7:51 AM 48.9 °F - 46.0 °F 90% 30.14 in 0.2 mi Calm Calm - N/A Fog Fog
8:51 AM 50.0 °F - 46.9 °F 89% 30.16 in 0.5 mi Calm Calm - N/A Fog Fog
9:07 AM 51.1 °F - 48.0 °F 89% 30.15 in 6.0 mi Calm Calm - N/A   Overcast
9:17 AM 51.1 °F - 48.0 °F 89% 30.15 in 2.5 mi Calm Calm - N/A   Mostly Cloudy
9:24 AM 53.1 °F - 48.9 °F 86% 30.15 in 9.0 mi Calm Calm - N/A   Mostly Cloudy
9:42 AM 54.0 °F - 50.0 °F 86% 30.15 in 10.0 mi Calm Calm - N/A   Scattered Clouds
9:51 AM 55.0 °F - 51.1 °F 86% 30.17 in 10.0 mi Calm Calm - N/A   Partly Cloudy
10:51 AM 62.1 °F - 53.1 °F 72% 30.15 in 10.0 mi Calm Calm - N/A   Clear
11:51 AM 73.0 °F - 55.9 °F 55% 30.12 in 10.0 mi Calm Calm - N/A   Clear
12:51 PM 80.1 °F 80.0 °F 54.0 °F 40% 30.09 in 10.0 mi SW 12.7 mph 16.1 mph N/A   Mostly Cloudy
1:51 PM 81.0 °F - 48.9 °F 33% 30.06 in 10.0 mi Variable 6.9 mph - N/A   Clear
2:51 PM 82.0 °F - 51.1 °F 34% 30.03 in 10.0 mi SW 4.6 mph - N/A   Clear
3:51 PM 82.9 °F - 51.1 °F 33% 30.03 in 10.0 mi SW 9.2 mph - N/A   Clear
4:51 PM 82.9 °F - 51.1 °F 33% 30.03 in 10.0 mi SW 6.9 mph - N/A   Clear
5:51 PM 81.0 °F 80.7 °F 55.0 °F 41% 30.04 in 10.0 mi Calm Calm - N/A   Clear
6:51 PM 73.9 °F - 57.9 °F 57% 30.06 in 10.0 mi Calm Calm - N/A   Clear
7:06 PM 71.1 °F - 59.0 °F 66% 30.07 in 10.0 mi Calm Calm - N/A   Partly Cloudy
7:51 PM 68.0 °F - 57.9 °F 70% 30.08 in 10.0 mi Calm Calm - N/A   Clear
8:51 PM 73.9 °F - 57.0 °F 55% 30.08 in 10.0 mi South 6.9 mph - N/A   Clear
9:51 PM 71.1 °F - 57.0 °F 61% 30.08 in 10.0 mi SSE 6.9 mph - N/A   Clear
10:51 PM 69.1 °F - 57.0 °F 65% 30.07 in 10.0 mi SE 4.6 mph - N/A   Clear
11:51 PM 66.0 °F - 55.9 °F 70% 30.05 in 10.0 mi SSE 4.6 mph - N/A   Clear